Regional Weather Roundup
Issued by NWS

Home | Current Version | Previous Version | Text Only | Print | Product List | Glossary On
Versions: 1 2 3 4 5 6 7 8 9 10 11 12 13 14 15 16 17 18 19 20 21 22 23 24 25 26 27 28 29 30 31 32 33 34 35 36 37 38 39 40 41 42 43 44 45 46 47 48 49 50
000
ASCA42 TJSJ 220211
RWRPR
PUERTO RICO/U.S. VIRGIN ISLANDS HOURLY WEATHER ROUNDUP
NATIONAL WEATHER SERVICE SAN JUAN PR
1000 PM AST TUE OCT 21 2014

PRZ001-004-220300-
PUERTO RICO

CITY           SKY/WX    TMP DP  RH WIND       PRES   REMARKS
SAN JUAN LMM   PTCLDY    82  75  78 E3        29.97R
AGUADILLA      PTCLDY    75  73  94 CALM      29.98R
CEIBA          PTCLDY    81  75  83 E3        29.99R
$$

PRZ006-007-220300-
U.S. VIRGIN ISLANDS

CITY           SKY/WX    TMP DP  RH WIND       PRES   REMARKS
CHRISTIANSTED  MOCLDY    79  73  83 NE5       29.98R
$$

HOURLY WEATHER ROUNDUP FOR THE NEWS MEDIA

CITY           SKY/WX    TMP DP  RH WIND       PRES   REMARKS
MIAMI          CLOUDY    75  69  81 SE5       29.96F
ORLANDO        CLOUDY    76  71  85 NE5       29.95R
NEW YORK       MOCLDY    58  52  80 N8        29.91R
NEWARK         MOCLDY    57  52  83 NE9       29.89R
CHICAGO        MOCLDY    47  37  68 N7        30.26R
HARTFORD       CLOUDY    56  55  97 N5        29.94R
BOSTON         CLOUDY    57  54  89 N12       29.97R
DALLAS         PTCLDY    73  59  61 E6        30.05R
PHILADELPHIA   CLOUDY    62  50  64 NE8       29.88R



USA.gov is the U.S. government's official web portal to all federal, state and local government web resources and services.